Location: Newark
(58.8333°N, 23.5833°E)
Time: 00:44:41
(UTC+00:00)

Explorer 7 - Pass Details

Date: 19 November 2019
Orbit: 485 x 680 km, 50.3° (Epoch: 05 December)

Event Time Altitude Azimuth Distance (km) Brightness Sun altitude
Rises 23:13:06 0° 222° (SW) 2,917 - -49.2°
Reaches altitude 10° 23:15:58 10° 205° (SSW) 1,975 - -49.0°
Maximum altitude 23:19:12 20° 159° (SSE) 1,415 - -48.8°
Drops below altitude 10° 23:22:19 10° 113° (ESE) 1,888 - -48.7°
Sets 23:24:59 0° 96° (E) 2,747 - -48.5°
